| time (UTC) | temp F | wind direction | speed MPH | gust MPH | rain 1hr in | rain 24hr in | rain mn in | humidity % | barometer mb |
| 20260901094512 | 71 | 211 | 0.0 | 0.0 | 0.00 | 0.01 | 0.01 | 98 | 1016.5 |
| 20260901093007 | 71 | 211 | 0.0 | 0.0 | 0.00 | 0.01 | 0.01 | 99 | 1016.3 |
| 20260901091507 | 71 | 211 | 0.0 | 0.0 | 0.01 | 0.01 | 0.01 | 99 | 1016.2 |
| 20260901090007 | 71 | 211 | 0.0 | 0.0 | 0.01 | 0.01 | 0.01 | 99 | 1016.2 |
| 20260901084504 | 71 | 211 | 0.0 | 0.0 | 0.01 | 0.01 | 0.01 | 98 | 1016.1 |
| 20260901083004 | 71 | 211 | 0.0 | 0.0 | 0.01 | 0.01 | 0.01 | 98 | 1016.1 |
| 20260901081500 | 71 | 211 | 0.0 | 0.0 | 0.00 | 0.00 | 0.00 | 99 | 1016.0 |
| 20260901080113 | 71 | 211 | 0.0 | 0.0 | 0.00 | 0.00 | 0.00 | 98 | 1016.0 |
| 20260901074623 | 72 | 211 | 0.0 | 0.0 | 0.00 | 0.00 | 0.00 | 98 | 1016.1 |
| 20260901073059 | 72 | 211 | 0.0 | 0.0 | 0.00 | 0.00 | 0.00 | 98 | 1016.0 |
| 20260901071526 | 72 | 211 | 0.0 | 0.0 | 0.00 | 0.00 | 0.00 | 98 | 1015.8 |
| 20260901070026 | 72 | 209 | 0.0 | 0.0 | 0.00 | 0.00 | 0.00 | 98 | 1015.9 |
| 20260901064523 | 72 | 209 | 0.0 | 0.0 | 0.00 | 0.00 | 0.00 | 98 | 1015.7 |
| 20260901063024 | 73 | 209 | 0.0 | 0.0 | 0.00 | 0.00 | 0.00 | 98 | 1015.7 |
| 20260901061521 | 73 | 209 | 0.0 | 0.0 | 0.00 | 0.00 | 0.00 | 98 | 1015.7 |
| 20260901060035 | 73 | 209 | 0.0 | 0.0 | 0.00 | 0.00 | 0.00 | 98 | 1015.8 |
| 20260901054549 | 73 | 209 | 0.0 | 0.0 | 0.00 | 0.00 | 0.00 | 98 | 1016.0 |
| 20260901053057 | 74 | 209 | 0.0 | 0.0 | 0.00 | 0.00 | 0.00 | 98 | 1016.1 |
| 20260901051508 | 74 | 209 | 0.0 | 0.0 | 0.00 | 0.00 | 0.00 | 97 | 1016.3 |
| 20260901050005 | 74 | 209 | 0.0 | 0.0 | 0.00 | 0.00 | 0.00 | 97 | 1016.2 |
| 20260901044502 | 74 | 209 | 0.0 | 0.0 | 0.00 | 0.00 | 0.00 | 97 | 1016.3 |
| 20260901043001 | 74 | 209 | 0.0 | 0.0 | 0.00 | 0.00 | 0.00 | 97 | 1016.3 |
| 20260901041501 | 75 | 209 | 0.0 | 0.0 | 0.00 | 0.00 | 0.00 | 97 | 1016.4 |
| 20260901040136 | 75 | 209 | 0.0 | 0.0 | 0.00 | 0.00 | 0.00 | 97 | 1016.5 |
| 20260901034558 | 75 | 208 | 0.0 | 0.0 | 0.00 | 0.00 | 0.00 | 97 | 1016.6 |
| 20260901033057 | 76 | 208 | 0.0 | 0.0 | 0.00 | 0.00 | 0.00 | 96 | 1016.5 |
| 20260901031559 | 76 | 208 | 0.0 | 0.0 | 0.00 | 0.00 | 0.00 | 96 | 1016.6 |
| 20260901024555 | 76 | 208 | 0.0 | 0.0 | 0.00 | 0.00 | 0.00 | 96 | 1016.6 |
| 20260901023100 | 77 | 208 | 0.0 | 0.0 | 0.00 | 0.00 | 0.00 | 96 | 1016.7 |
| 20260901021552 | 77 | 208 | 0.0 | 0.0 | 0.00 | 0.00 | 0.00 | 95 | 1016.6 |
| 20260901020055 | 77 | 208 | 0.0 | 0.0 | 0.00 | 0.00 | 0.00 | 95 | 1016.5 |
| 20260901014548 | 77 | 207 | 0.0 | 0.0 | 0.00 | 0.00 | 0.00 | 95 | 1016.4 |
| 20260901013055 | 78 | 207 | 0.0 | 0.0 | 0.00 | 0.00 | 0.00 | 95 | 1016.2 |
| 20260901011548 | 78 | 207 | 0.0 | 0.0 | 0.00 | 0.00 | 0.00 | 94 | 1016.0 |
| 20260901004516 | 79 | 207 | 0.0 | 1.0 | 0.00 | 0.00 | 0.00 | 93 | 1015.7 |
| 20260901003021 | 79 | 207 | 0.0 | 0.0 | 0.00 | 0.00 | 0.00 | 92 | 1015.5 |
| 20260901001525 | 80 | 207 | 0.0 | 2.0 | 0.00 | 0.00 | 0.00 | 91 | 1015.3 |
| 20260901000013 | 80 | 206 | 0.0 | 4.0 | 0.00 | 0.00 | 0.00 | 90 | 1015.2 |
| 20260831234512 | 81 | 207 | 3.0 | 5.0 | 0.00 | 0.00 | 0.00 | 89 | 1015.3 |
| 20260831233029 | 83 | 190 | 0.0 | 0.0 | 0.00 | 0.00 | 0.00 | 86 | 1015.3 |
| 20260831231517 | 84 | 183 | 0.0 | 0.0 | 0.00 | 0.00 | 0.00 | 84 | 1015.4 |
| 20260831230010 | 85 | 175 | 0.0 | 2.0 | 0.00 | 0.00 | 0.00 | 81 | 1015.5 |
| 20260831224508 | 86 | 167 | 2.0 | 5.0 | 0.00 | 0.00 | 0.00 | 79 | 1015.5 |
| 20260831223007 | 88 | 85 | 0.0 | 1.0 | 0.00 | 0.00 | 0.00 | 73 | 1015.6 |
| 20260831221505 | 89 | 40 | 0.0 | 6.0 | 0.00 | 0.00 | 0.00 | 70 | 1015.6 |
| 20260831220004 | 90 | 43 | 3.0 | 7.0 | 0.00 | 0.00 | 0.00 | 65 | 1015.7 |
| 20260831214500 | 91 | 43 | 4.0 | 6.0 | 0.00 | 0.00 | 0.00 | 65 | 1015.8 |
| 20260831213106 | 92 | 28 | 2.0 | 7.0 | 0.00 | 0.00 | 0.00 | 61 | 1016.1 |
| 20260831211528 | 92 | 82 | 2.0 | 7.0 | 0.00 | 0.00 | 0.00 | 59 | 1016.2 |
| 20260831210026 | 91 | 76 | 1.0 | 5.0 | 0.00 | 0.00 | 0.00 | 63 | 1016.1 |
| 20260831204523 | 92 | 32 | 3.0 | 8.0 | 0.00 | 0.00 | 0.00 | 62 | 1016.1 |
| 20260831203022 | 92 | 52 | 4.0 | 8.0 | 0.00 | 0.00 | 0.00 | 61 | 1016.2 |
| 20260831201524 | 91 | 49 | 3.0 | 6.0 | 0.00 | 0.00 | 0.00 | 62 | 1016.4 |
| 20260831200017 | 91 | 57 | 1.0 | 6.0 | 0.00 | 0.00 | 0.00 | 63 | 1016.6 |
| 20260831194514 | 91 | 214 | 2.0 | 6.0 | 0.00 | 0.00 | 0.00 | 68 | 1016.7 |
| 20260831193024 | 92 | 173 | 0.0 | 4.0 | 0.00 | 0.00 | 0.00 | 62 | 1016.8 |
| 20260831191511 | 91 | 196 | 0.0 | 5.0 | 0.00 | 0.00 | 0.00 | 63 | 1017.0 |
| 20260831190016 | 91 | 153 | 5.0 | 9.0 | 0.00 | 0.00 | 0.00 | 63 | 1017.3 |
| 20260831184510 | 91 | 72 | 4.0 | 7.0 | 0.00 | 0.00 | 0.00 | 66 | 1017.4 |
| 20260831183005 | 91 | 24 | 2.0 | 7.0 | 0.00 | 0.00 | 0.00 | 70 | 1017.4 |
| 20260831181506 | 89 | 41 | 3.0 | 7.0 | 0.00 | 0.00 | 0.00 | 72 | 1017.8 |
| 20260831181501 | 89 | 43 | 3.0 | 7.0 | 0.00 | 0.00 | 0.00 | 73 | 1017.8 |
| 20260831180112 | 88 | 36 | 3.0 | 8.0 | 0.00 | 0.00 | 0.00 | 72 | 1017.7 |
| 20260831174554 | 87 | 77 | 4.0 | 8.0 | 0.00 | 0.00 | 0.00 | 74 | 1017.8 |
| 20260831173124 | 86 | 32 | 0.0 | 7.0 | 0.00 | 0.00 | 0.00 | 74 | 1018.0 |
| 20260831171523 | 87 | 17 | 1.0 | 9.0 | 0.00 | 0.00 | 0.00 | 75 | 1018.1 |
| 20260831170033 | 86 | 22 | 6.0 | 9.0 | 0.00 | 0.00 | 0.00 | 75 | 1018.1 |
| 20260831164520 | 85 | 67 | 4.0 | 9.0 | 0.00 | 0.00 | 0.00 | 78 | 1018.3 |
| 20260831163011 | 83 | 61 | 4.0 | 9.0 | 0.00 | 0.00 | 0.00 | 80 | 1018.2 |
| 20260831161508 | 82 | 41 | 1.0 | 8.0 | 0.00 | 0.00 | 0.00 | 83 | 1018.4 |
| 20260831160034 | 80 | 307 | 0.0 | 0.0 | 0.00 | 0.00 | 0.00 | 87 | 1018.5 |
| 20260831154533 | 78 | 311 | 0.0 | 0.0 | 0.00 | 0.00 | 0.00 | 90 | 1018.5 |
| 20260831153023 | 76 | 296 | 0.0 | 0.0 | 0.00 | 0.00 | 0.00 | 95 | 1018.5 |
| 20260831151521 | 75 | 213 | 0.0 | 0.0 | 0.00 | 0.00 | 0.00 | 98 | 1018.5 |
| 20260831150022 | 74 | 213 | 0.0 | 0.0 | 0.00 | 0.00 | 0.00 | 99 | 1018.7 |
| 20260831144512 | 74 | 213 | 0.0 | 0.0 | 0.00 | 0.00 | 0.00 | 99 | 1018.6 |
| 20260831143006 | 73 | 212 | 0.0 | 0.0 | 0.00 | 0.00 | 0.00 | 100 | 1018.5 |
| 20260831141501 | 73 | 212 | 0.0 | 0.0 | 0.00 | 0.00 | 0.00 | 100 | 1018.4 |
| 20260831140059 | 73 | 212 | 0.0 | 0.0 | 0.00 | 0.00 | 0.00 | 100 | 1018.3 |
| 20260831134553 | 72 | 212 | 0.0 | 0.0 | 0.00 | 0.00 | 0.00 | 100 | 1018.2 |
| 20260831133048 | 72 | 212 | 0.0 | 0.0 | 0.00 | 0.00 | 0.00 | 100 | 1018.3 |
| 20260831131543 | 71 | 212 | 0.0 | 0.0 | 0.00 | 0.00 | 0.00 | 100 | 1018.4 |
| 20260831130047 | 70 | 212 | 0.0 | 0.0 | 0.00 | 0.00 | 0.00 | 100 | 1018.3 |
| 20260831124541 | 70 | 212 | 0.0 | 0.0 | 0.00 | 0.00 | 0.00 | 100 | 1018.1 |
| 20260831123042 | 69 | 212 | 0.0 | 0.0 | 0.00 | 0.00 | 0.00 | 99 | 1018.1 |
| 20260831121543 | 69 | 212 | 0.0 | 0.0 | 0.00 | 0.00 | 0.00 | 99 | 1018.2 |
| 20260831120037 | 68 | 212 | 0.0 | 0.0 | 0.00 | 0.00 | 0.00 | 99 | 1018.1 |
| 20260831114535 | 68 | 212 | 0.0 | 0.0 | 0.00 | 0.00 | 0.00 | 99 | 1018.0 |
| 20260831113032 | 68 | 212 | 0.0 | 0.0 | 0.00 | 0.00 | 0.00 | 99 | 1017.8 |
| 20260831111529 | 68 | 212 | 0.0 | 0.0 | 0.00 | 0.00 | 0.00 | 99 | 1017.6 |
| 20260831110029 | 68 | 212 | 0.0 | 0.0 | 0.00 | 0.00 | 0.00 | 99 | 1017.5 |
| 20260831104530 | 68 | 212 | 0.0 | 0.0 | 0.00 | 0.00 | 0.00 | 99 | 1017.5 |
| 20260831103056 | 68 | 212 | 0.0 | 0.0 | 0.00 | 0.00 | 0.00 | 99 | 1017.4 |
| 20260831101556 | 68 | 212 | 0.0 | 0.0 | 0.00 | 0.00 | 0.00 | 99 | 1017.3 |
| 20260831100105 | 68 | 212 | 0.0 | 0.0 | 0.00 | 0.00 | 0.00 | 99 | 1017.3 |